Simultaneous Nadir Overpasses (SNOs) Predictions

Prediction of SNOs between GOES-16 and METOP-C Satellite Orbit:

Table of predicted SNOs for the next 14.0 days since TLE Epoch: 10/1/2023
Index Date Time (GOES-16) GOES-16 Lat,Lon METOP-C Lat,Lon Distance(km) Time Diff (sec)
1 10/02/2023 02:39:02 0.06, -75.21 -0.49, -77.73 287.06 80
2 10/03/2023 02:21:03 0.05, -75.22 0.62, -72.74 282.53 80
3 10/04/2023 14:37:16 -0.05, -75.24 0.39, -77.30 233.78 80
4 10/05/2023 14:19:17 -0.05, -75.25 -0.72, -72.31 336.13 80
5 10/07/2023 02:38:20 0.05, -75.25 -0.33, -76.90 188.66 80
6 10/08/2023 02:16:41 0.04, -75.26 0.79, -71.91 381.64 20
7 10/09/2023 14:33:53 -0.04, -75.30 0.21, -76.47 133.33 80
8 10/10/2023 14:15:55 -0.04, -75.32 -0.91, -71.48 437.50 80
9 10/12/2023 02:34:57 0.04, -75.33 -0.13, -76.08 85.68 80
10 10/13/2023 02:11:39 0.04, -75.35 1.00, -71.09 485.55 80
11 10/14/2023 14:33:10 -0.04, -75.40 0.04, -75.64 28.25 80
